BEIDOU 16 (C02)

Last updated on Oct. 24, 2020, 5:55 a.m. UTC

1 38953U 12059A   20297.91927174 -.00000190  00000-0  00000-0 0  9996
2 38953   1.4047  84.4296 0006614 258.1251 105.1577  1.00273758 29370
UTC
Height (km)
Latitude
Longitude
Inclination
Orbital Period
UTC large
Height (km)
Speed (km/s)
/
Latitude / Longitude
Inclination (degrees)
Orbital Period (minutes)
Azimuth
Elevation
Range (km)
Doppler Factor
iOS Compass Heading
iOS Angle

Next 30 passes for location: Hong Kong

Rise time Rise Azimuth (degrees) Set time Set Azimuth (degrees) Duration Max altitude (degrees)

No matching passes for this satellites